Precipitable_Water
1.07 1.08 1.08 1.08 1.07 1.07 1.07 1.12 1.18 1.24 1.30 1.33 1.35 1.36 1.38 1.39 1.38 1.40 1.39 1.41 1.42 1.44 1.46 1.42 1.36 1.34 1.29 1.27 1.30 1.32 1.32 1.33 1.34 1.31 1.27 1.25 1.29 1.35 1.36 1.32 1.21 1.20 1.24 1.25 1.33 1.40 1.47 1.52 1.47 1.45 1.45 1.40 1.39 1.39 1.40 1.37 1.26 1.20 1.20 1.21 1.22 1.22 1.22
1.02 1.06 1.06 1.09 1.09 1.10 1.11 1.14 1.19 1.23 1.28 1.34 1.39 1.40 1.41 1.40 1.41 1.41 1.42 1.44 1.46 1.46 1.49 1.46 1.42 1.38 1.33 1.31 1.32 1.33 1.32 1.33 1.35 1.33 1.29 1.26 1.33 1.42 1.39 1.31 1.21 1.21 1.27 1.33 1.40 1.50 1.54 1.52 1.46 1.43 1.42 1.37 1.37 1.41 1.42 1.28 1.15 1.13 1.15 1.16 1.16 1.19 1.18
0.98 1.04 1.08 1.11 1.13 1.14 1.14 1.16 1.18 1.22 1.26 1.33 1.39 1.41 1.38 1.38 1.42 1.43 1.45 1.46 1.47 1.51 1.54 1.52 1.47 1.43 1.40 1.36 1.32 1.32 1.34 1.35 1.34 1.31 1.25 1.24 1.31 1.40 1.40 1.33 1.27 1.27 1.35 1.42 1.48 1.52 1.54 1.49 1.46 1.45 1.41 1.36 1.38 1.40 1.34 1.22 1.13 1.08 1.11 1.15 1.15 1.16 1.12
0.99 1.02 1.05 1.10 1.15 1.17 1.13 1.13 1.17 1.22 1.28 1.31 1.32 1.34 1.38 1.42 1.47 1.48 1.49 1.48 1.48 1.51 1.50 1.51 1.49 1.45 1.43 1.36 1.33 1.32 1.33 1.34 1.36 1.32 1.29 1.31 1.33 1.40 1.38 1.34 1.34 1.38 1.40 1.43 1.49 1.52 1.52 1.51 1.45 1.44 1.41 1.37 1.36 1.36 1.34 1.23 1.10 1.07 1.09 1.09 1.09 1.12 1.12
0.98 1.01 1.03 1.06 1.09 1.10 1.09 1.14 1.16 1.19 1.23 1.28 1.30 1.34 1.38 1.44 1.49 1.50 1.51 1.53 1.53 1.51 1.53 1.53 1.51 1.47 1.45 1.39 1.34 1.34 1.31 1.31 1.35 1.36 1.35 1.35 1.36 1.37 1.34 1.33 1.37 1.40 1.42 1.46 1.52 1.51 1.47 1.46 1.43 1.42 1.38 1.36 1.35 1.37 1.36 1.26 1.12 1.08 1.10 1.10 1.07 1.07 1.09
0.93 0.96 0.98 0.98 0.99 1.01 1.04 1.07 1.11 1.15 1.19 1.23 1.25 1.29 1.36 1.42 1.46 1.45 1.49 1.54 1.56 1.60 1.64 1.61 1.54 1.49 1.41 1.40 1.36 1.35 1.35 1.33 1.35 1.38 1.36 1.33 1.30 1.29 1.32 1.36 1.38 1.40 1.43 1.45 1.50 1.48 1.44 1.41 1.40 1.39 1.35 1.35 1.36 1.37 1.37 1.27 1.18 1.12 1.12 1.13 1.09 1.09 1.07
0.86 0.88 0.90 0.93 0.95 0.97 1.01 1.04 1.08 1.10 1.13 1.16 1.21 1.26 1.31 1.36 1.38 1.42 1.49 1.52 1.56 1.55 1.58 1.58 1.55 1.50 1.45 1.42 1.36 1.33 1.29 1.28 1.33 1.36 1.35 1.31 1.28 1.27 1.31 1.35 1.39 1.40 1.40 1.46 1.46 1.47 1.44 1.42 1.40 1.40 1.38 1.37 1.38 1.37 1.35 1.28 1.22 1.16 1.13 1.13 1.12 1.16 1.15
0.82 0.84 0.86 0.88 0.92 0.96 0.98 1.01 1.02 1.05 1.10 1.17 1.18 1.20 1.26 1.31 1.36 1.41 1.43 1.47 1.55 1.58 1.58 1.57 1.56 1.51 1.48 1.44 1.37 1.28 1.26 1.28 1.30 1.33 1.33 1.27 1.26 1.26 1.28 1.33 1.36 1.38 1.39 1.39 1.45 1.48 1.45 1.44 1.43 1.43 1.41 1.40 1.39 1.39 1.36 1.32 1.27 1.21 1.15 1.11 1.13 1.18 1.20
0.81 0.83 0.85 0.88 0.92 0.95 0.97 0.99 0.99 0.98 1.01 1.05 1.08 1.11 1.21 1.30 1.33 1.35 1.40 1.47 1.52 1.54 1.56 1.59 1.59 1.57 1.52 1.45 1.36 1.27 1.25 1.26 1.25 1.28 1.29 1.28 1.27 1.24 1.26 1.32 1.36 1.38 1.35 1.36 1.41 1.48 1.47 1.45 1.43 1.42 1.42 1.41 1.41 1.40 1.38 1.36 1.30 1.27 1.21 1.15 1.13 1.15 1.18
0.79 0.83 0.84 0.87 0.89 0.91 0.94 0.98 1.00 1.00 1.03 1.05 1.05 1.09 1.16 1.22 1.29 1.36 1.39 1.42 1.48 1.51 1.57 1.61 1.62 1.60 1.53 1.46 1.37 1.30 1.26 1.21 1.20 1.21 1.25 1.27 1.27 1.24 1.26 1.32 1.36 1.38 1.35 1.36 1.40 1.42 1.46 1.47 1.45 1.44 1.43 1.42 1.41 1.40 1.40 1.38 1.34 1.30 1.28 1.22 1.18 1.15 1.15
0.72 0.78 0.82 0.83 0.85 0.88 0.92 0.99 1.00 0.99 1.01 1.04 1.09 1.11 1.13 1.20 1.27 1.31 1.35 1.40 1.43 1.50 1.59 1.63 1.64 1.59 1.53 1.46 1.38 1.33 1.26 1.19 1.17 1.15 1.20 1.25 1.26 1.24 1.27 1.30 1.33 1.35 1.33 1.35 1.37 1.42 1.45 1.47 1.48 1.46 1.45 1.42 1.41 1.41 1.41 1.40 1.37 1.35 1.34 1.31 1.25 1.22 1.19
0.70 0.74 0.76 0.81 0.86 0.90 0.92 0.96 0.98 1.00 1.02 1.06 1.13 1.16 1.15 1.17 1.22 1.27 1.32 1.36 1.43 1.49 1.56 1.61 1.64 1.60 1.52 1.46 1.38 1.32 1.26 1.21 1.16 1.12 1.15 1.21 1.23 1.23 1.25 1.28 1.29 1.30 1.32 1.33 1.32 1.38 1.44 1.45 1.47 1.47 1.45 1.45 1.45 1.46 1.47 1.47 1.43 1.41 1.39 1.36 1.32 1.27 1.25
0.70 0.74 0.78 0.83 0.87 0.90 0.92 0.94 0.95 1.00 1.03 1.07 1.12 1.17 1.17 1.17 1.19 1.22 1.26 1.33 1.42 1.48 1.54 1.58 1.60 1.58 1.52 1.46 1.39 1.33 1.26 1.21 1.15 1.13 1.13 1.17 1.20 1.24 1.24 1.25 1.28 1.30 1.30 1.33 1.32 1.34 1.37 1.42 1.43 1.47 1.48 1.49 1.50 1.51 1.52 1.51 1.50 1.47 1.45 1.41 1.37 1.32 1.28
0.69 0.72 0.78 0.82 0.83 0.85 0.85 0.87 0.94 0.98 1.02 1.06 1.11 1.16 1.19 1.17 1.16 1.18 1.22 1.28 1.37 1.47 1.52 1.56 1.55 1.55 1.52 1.46 1.40 1.34 1.27 1.21 1.17 1.15 1.15 1.15 1.18 1.22 1.23 1.25 1.29 1.31 1.35 1.36 1.33 1.32 1.36 1.39 1.41 1.46 1.49 1.50 1.52 1.56 1.58 1.55 1.54 1.52 1.48 1.44 1.42 1.40 1.33
0.74 0.77 0.83 0.83 0.83 0.87 0.89 0.96 1.01 1.00 1.03 1.07 1.10 1.15 1.19 1.22 1.24 1.28 1.32 1.36 1.40 1.43 1.47 1.53 1.52 1.52 1.51 1.46 1.39 1.33 1.31 1.27 1.22 1.21 1.19 1.16 1.15 1.17 1.21 1.25 1.30 1.35 1.39 1.39 1.37 1.36 1.36 1.41 1.45 1.47 1.49 1.51 1.53 1.55 1.56 1.54 1.52 1.53 1.50 1.47 1.46 1.43 1.35
0.79 0.79 0.81 0.83 0.86 0.90 0.96 1.02 0.99 0.98 1.02 1.07 1.11 1.13 1.18 1.21 1.23 1.24 1.24 1.27 1.34 1.38 1.45 1.52 1.50 1.49 1.49 1.44 1.38 1.36 1.34 1.31 1.26 1.23 1.22 1.19 1.16 1.17 1.21 1.26 1.31 1.35 1.37 1.38 1.40 1.43 1.45 1.45 1.48 1.51 1.51 1.51 1.53 1.56 1.57 1.56 1.56 1.55 1.52 1.49 1.44 1.38 1.36
0.82 0.85 0.88 0.93 0.94 0.95 0.97 0.93 0.88 0.93 0.99 1.03 1.09 1.15 1.18 1.20 1.24 1.26 1.26 1.28 1.33 1.37 1.43 1.46 1.46 1.48 1.46 1.41 1.40 1.39 1.36 1.31 1.25 1.24 1.22 1.22 1.23 1.27 1.29 1.30 1.33 1.34 1.36 1.38 1.42 1.45 1.50 1.54 1.52 1.53 1.55 1.55 1.54 1.55 1.58 1.58 1.55 1.53 1.52 1.52 1.51 1.43 1.34
0.74 0.78 0.83 0.86 0.92 0.90 0.85 0.82 0.86 0.93 0.98 1.01 1.05 1.10 1.11 1.13 1.17 1.21 1.25 1.29 1.31 1.35 1.42 1.42 1.42 1.42 1.42 1.42 1.41 1.39 1.37 1.32 1.28 1.25 1.21 1.23 1.25 1.31 1.36 1.38 1.38 1.37 1.39 1.42 1.45 1.49 1.54 1.56 1.59 1.62 1.63 1.62 1.62 1.60 1.59 1.56 1.53 1.52 1.54 1.56 1.60 1.56 1.46
0.75 0.78 0.77 0.77 0.81 0.81 0.80 0.81 0.88 0.93 0.96 1.02 1.05 1.07 1.11 1.12 1.13 1.16 1.21 1.26 1.29 1.37 1.40 1.38 1.38 1.38 1.39 1.44 1.41 1.36 1.34 1.33 1.31 1.29 1.27 1.25 1.27 1.33 1.40 1.41 1.41 1.42 1.44 1.46 1.51 1.57 1.58 1.62 1.70 1.74 1.77 1.78 1.75 1.74 1.73 1.66 1.62 1.58 1.63 1.65 1.70 1.72 1.65
0.74 0.88 0.96 0.93 0.88 0.85 0.87 0.92 0.95 0.96 0.94 0.94 0.98 1.02 1.05 1.10 1.10 1.09 1.15 1.20 1.29 1.36 1.39 1.36 1.35 1.36 1.37 1.41 1.40 1.35 1.31 1.32 1.32 1.31 1.31 1.33 1.34 1.37 1.39 1.40 1.42 1.46 1.53 1.60 1.67 1.67 1.69 1.73 1.77 1.85 1.88 1.88 1.86 1.83 1.80 1.75 1.71 1.68 1.67 1.70 1.75 1.74 1.67
0.63 0.66 0.79 0.90 0.87 0.88 0.92 0.94 0.94 0.93 0.91 0.91 0.95 1.01 1.06 1.09 1.09 1.09 1.12 1.18 1.25 1.32 1.35 1.35 1.32 1.32 1.33 1.34 1.36 1.34 1.31 1.31 1.32 1.31 1.35 1.40 1.42 1.41 1.40 1.42 1.47 1.53 1.60 1.67 1.71 1.73 1.72 1.75 1.80 1.87 1.91 1.90 1.89 1.86 1.79 1.77 1.73 1.70 1.72 1.73 1.80 1.74 1.61
0.56 0.64 0.70 0.91 1.03 0.99 0.92 0.94 0.97 0.94 0.92 0.94 0.99 1.05 1.07 1.06 1.08 1.08 1.09 1.16 1.18 1.24 1.30 1.33 1.31 1.27 1.27 1.27 1.29 1.30 1.29 1.29 1.29 1.32 1.38 1.43 1.46 1.46 1.45 1.46 1.49 1.52 1.64 1.70 1.73 1.77 1.78 1.80 1.78 1.72 1.74 1.84 1.84 1.79 1.71 1.70 1.68 1.68 1.69 1.70 1.69 1.66 1.57
0.56 0.61 0.66 0.70 0.84 1.08 1.14 1.12 1.07 1.07 1.07 1.05 1.05 1.06 1.06 1.05 1.08 1.07 1.08 1.12 1.15 1.17 1.22 1.28 1.27 1.24 1.22 1.20 1.20 1.22 1.25 1.27 1.29 1.34 1.42 1.48 1.49 1.49 1.50 1.51 1.53 1.61 1.70 1.68 1.70 1.75 1.83 1.86 1.79 1.75 1.74 1.72 1.70 1.65 1.62 1.63 1.68 1.68 1.67 1.65 1.62 1.57 1.50
0.49 0.50 0.53 0.58 0.69 0.77 0.92 1.02 1.03 1.04 1.06 1.11 1.12 1.13 1.13 1.12 1.09 1.09 1.09 1.09 1.10 1.10 1.13 1.19 1.21 1.22 1.18 1.16 1.16 1.19 1.23 1.27 1.33 1.39 1.46 1.50 1.51 1.55 1.58 1.62 1.67 1.69 1.72 1.67 1.70 1.75 1.81 1.82 1.76 1.73 1.70 1.65 1.63 1.64 1.62 1.63 1.67 1.65 1.63 1.61 1.57 1.53 1.45
0.57 0.49 0.47 0.49 0.50 0.58 0.76 0.87 0.93 0.95 1.03 1.09 1.11 1.19 1.19 1.15 1.09 1.07 1.05 1.06 1.07 1.06 1.06 1.10 1.17 1.20 1.17 1.14 1.17 1.21 1.26 1.32 1.37 1.43 1.47 1.50 1.54 1.63 1.67 1.69 1.71 1.77 1.78 1.78 1.80 1.80 1.82 1.79 1.72 1.70 1.66 1.64 1.70 1.74 1.69 1.67 1.66 1.63 1.60 1.57 1.51 1.46 1.41
0.52 0.61 0.56 0.50 0.51 0.54 0.60 0.76 0.85 0.91 0.91 0.95 0.98 1.05 1.15 1.19 1.14 1.05 1.03 1.03 1.04 1.02 1.00 1.01 1.09 1.17 1.19 1.19 1.21 1.25 1.31 1.38 1.41 1.47 1.50 1.54 1.62 1.70 1.74 1.79 1.80 1.78 1.78 1.81 1.83 1.79 1.77 1.73 1.68 1.61 1.62 1.70 1.72 1.67 1.66 1.64 1.63 1.62 1.57 1.50 1.46 1.43 1.40
0.66 0.63 0.64 0.65 0.59 0.65 0.74 0.76 0.83 0.99 0.99 1.00 1.07 1.13 1.16 1.20 1.18 1.11 1.04 1.02 1.03 1.00 0.97 0.98 1.05 1.16 1.26 1.30 1.29 1.32 1.37 1.44 1.48 1.52 1.59 1.64 1.68 1.74 1.78 1.79 1.79 1.82 1.83 1.82 1.82 1.76 1.67 1.62 1.59 1.59 1.64 1.68 1.67 1.64 1.63 1.59 1.53 1.50 1.45 1.40 1.39 1.40 1.40
0.68 0.71 0.81 0.87 0.97 0.80 0.68 0.86 0.94 0.98 1.03 1.03 1.01 1.07 1.14 1.17 1.16 1.13 1.09 1.07 1.03 1.01 1.03 1.05 1.10 1.23 1.36 1.41 1.40 1.43 1.48 1.52 1.60 1.64 1.65 1.72 1.74 1.76 1.77 1.83 1.89 1.92 1.92 1.86 1.77 1.64 1.53 1.52 1.58 1.61 1.62 1.61 1.61 1.59 1.53 1.48 1.43 1.40 1.38 1.37 1.37 1.37 1.39
0.86 0.79 0.71 0.76 0.86 1.03 1.10 1.01 1.09 1.14 1.14 1.13 1.03 1.02 1.10 1.16 1.17 1.16 1.17 1.14 1.11 1.13 1.17 1.24 1.29 1.37 1.45 1.51 1.54 1.56 1.58 1.62 1.64 1.65 1.71 1.74 1.78 1.77 1.78 1.90 1.95 1.94 1.88 1.78 1.65 1.56 1.54 1.57 1.59 1.58 1.54 1.52 1.53 1.51 1.45 1.42 1.41 1.40 1.38 1.37 1.35 1.34 1.36
0.83 0.89 0.98 0.95 0.89 1.04 1.15 1.11 1.12 1.19 1.32 1.41 1.52 1.60 1.67 1.68 1.51 1.33 1.23 1.17 1.20 1.30 1.41 1.48 1.49 1.54 1.57 1.63 1.66 1.67 1.69 1.72 1.72 1.75 1.78 1.80 1.83 1.85 1.89 1.93 1.93 1.84 1.69 1.58 1.48 1.43 1.45 1.49 1.53 1.49 1.45 1.41 1.39 1.39 1.41 1.42 1.40 1.38 1.37 1.35 1.33 1.33 1.34
0.89 0.88 0.86 0.85 0.94 1.03 0.95 1.05 1.12 1.16 1.22 1.33 1.39 1.40 1.36 1.47 1.68 1.88 1.62 1.33 1.43 1.47 1.54 1.65 1.73 1.71 1.71 1.75 1.76 1.76 1.80 1.81 1.81 1.82 1.86 1.90 1.94 1.93 1.92 1.88 1.74 1.55 1.50 1.42 1.39 1.40 1.39 1.39 1.41 1.39 1.38 1.35 1.30 1.33 1.37 1.39 1.37 1.33 1.32 1.29 1.28 1.30 1.33
0.96 0.94 0.93 0.93 0.92 0.95 1.02 1.01 0.99 1.06 1.21 1.40 1.52 1.54 1.56 1.54 1.51 1.50 1.84 2.05 1.89 1.75 1.75 1.87 1.90 1.95 1.97 2.04 2.08 2.14 2.06 1.98 1.98 2.00 2.04 2.06 2.00 1.97 1.87 1.64 1.51 1.42 1.38 1.39 1.40 1.38 1.38 1.43 1.43 1.41 1.36 1.31 1.30 1.31 1.33 1.33 1.29 1.26 1.25 1.24 1.24 1.27 1.29
0.98 0.96 0.96 0.97 1.00 1.01 1.02 1.05 1.01 1.00 1.04 1.10 1.27 1.42 1.59 1.65 1.57 1.56 1.72 1.93 2.16 1.82 1.70 1.70 1.90 2.02 2.12 2.11 2.10 2.06 2.10 2.06 2.08 2.14 2.09 2.11 1.98 1.76 1.59 1.50 1.42 1.39 1.40 1.41 1.40 1.41 1.42 1.43 1.42 1.38 1.32 1.26 1.27 1.30 1.27 1.21 1.18 1.17 1.19 1.21 1.22 1.22 1.22
1.00 1.03 1.07 1.08 1.09 1.08 1.05 1.05 1.06 1.09 1.10 1.11 1.22 1.32 1.41 1.46 1.55 1.67 1.87 1.94 2.11 2.18 1.90 1.72 1.69 1.84 1.94 2.00 1.93 1.97 2.03 2.02 2.04 2.01 1.91 1.67 1.54 1.48 1.48 1.48 1.48 1.43 1.40 1.39 1.41 1.42 1.43 1.41 1.36 1.29 1.25 1.23 1.24 1.23 1.17 1.12 1.12 1.15 1.16 1.18 1.18 1.15 1.13
1.03 1.09 1.13 1.13 1.12 1.10 1.07 1.10 1.12 1.14 1.09 1.10 1.25 1.39 1.42 1.40 1.39 1.52 1.62 1.89 2.11 2.03 2.09 2.01 1.96 1.93 1.75 1.95 2.08 1.98 2.02 2.04 1.93 1.64 1.47 1.43 1.42 1.45 1.47 1.46 1.42 1.40 1.41 1.50 1.57 1.55 1.45 1.35 1.35 1.34 1.29 1.26 1.20 1.14 1.09 1.08 1.07 1.13 1.19 1.18 1.15 1.10 1.07
1.05 1.05 1.14 1.21 1.22 1.21 1.19 1.18 1.19 1.21 1.24 1.29 1.34 1.38 1.40 1.38 1.45 1.48 1.57 1.71 1.94 2.05 2.05 1.91 1.89 1.94 1.85 1.86 1.81 1.83 1.73 1.61 1.52 1.46 1.41 1.37 1.36 1.37 1.41 1.48 1.48 1.46 1.43 1.41 1.48 1.51 1.49 1.43 1.32 1.30 1.28 1.21 1.22 1.21 1.13 1.09 1.12 1.22 1.24 1.21 1.18 1.15 1.13
1.07 1.10 1.13 1.22 1.26 1.27 1.26 1.24 1.30 1.35 1.35 1.39 1.43 1.50 1.54 1.47 1.43 1.49 1.58 1.76 1.79 1.83 1.77 1.77 1.77 1.77 1.63 1.55 1.50 1.48 1.46 1.46 1.43 1.41 1.40 1.38 1.37 1.38 1.35 1.37 1.45 1.48 1.45 1.40 1.41 1.41 1.40 1.40 1.40 1.35 1.29 1.20 1.15 1.22 1.26 1.24 1.25 1.28 1.27 1.25 1.22 1.20 1.19
1.21 1.23 1.24 1.28 1.30 1.34 1.37 1.37 1.36 1.41 1.48 1.55 1.56 1.60 1.62 1.46 1.35 1.51 1.69 1.80 1.81 1.86 1.68 1.68 1.65 1.54 1.50 1.49 1.48 1.48 1.47 1.45 1.41 1.39 1.38 1.39 1.39 1.36 1.27 1.24 1.26 1.32 1.38 1.38 1.38 1.38 1.39 1.39 1.39 1.34 1.33 1.30 1.29 1.26 1.23 1.27 1.31 1.31 1.28 1.26 1.24 1.21 1.16
Wind_Speed
26 26 25 24 26 26 25 24 24 24 24 24 24 24 23 23 22 22 22 23 24 24 24 24 23 23 23 23 23 21 20 20 19 18 17 15 14 14 13 13 12 11 11 10 9 9 8 7 6 5 4 4 4 4 6 7 8 8 7 7 8 9 10
26 26 25 24 24 26 25 24 24 24 25 25 25 25 24 23 23 22 22 23 23 24 24 24 23 23 23 23 23 22 21 20 19 18 17 16 15 15 15 14 13 12 11 10 10 9 8 7 6 5 5 4 5 6 7 8 7 7 7 8 9 10 10
27 26 25 24 24 25 24 24 24 24 24 25 26 26 26 25 24 23 23 23 23 23 23 24 23 23 23 23 23 23 22 21 20 19 18 17 16 16 15 15 13 12 12 11 10 9 8 7 7 6 6 6 6 6 7 7 7 8 8 9 9 10 10
27 26 24 24 25 25 24 24 24 24 24 25 27 27 27 26 25 24 23 23 24 23 23 23 23 23 23 23 23 23 23 22 21 20 19 18 17 17 16 15 14 13 12 11 10 10 9 8 7 7 7 7 7 7 7 7 8 9 9 9 10 10 10
28 26 24 23 24 25 25 24 23 23 24 26 27 27 26 26 25 24 24 24 24 24 24 23 23 23 23 23 23 23 23 22 21 20 19 19 18 17 17 16 15 13 13 12 11 11 10 9 8 8 8 8 8 8 8 8 9 9 9 9 10 10 10
27 27 25 23 23 24 25 25 24 24 24 26 27 26 26 25 25 25 25 25 25 24 24 23 23 22 22 23 23 23 22 22 21 21 20 19 19 18 18 17 15 14 13 13 13 12 11 10 9 9 9 9 9 9 9 9 9 9 9 9 9 10 10
28 27 26 25 24 24 24 25 25 25 25 25 26 26 25 26 27 27 27 26 25 25 24 24 23 22 22 22 23 23 23 22 22 21 20 20 20 19 18 17 16 15 14 14 14 13 12 11 10 9 9 9 10 10 10 10 10 10 11 10 10 10 11
28 28 27 27 26 25 25 25 25 24 24 25 26 26 26 27 27 28 28 27 26 25 24 24 24 23 22 22 23 23 23 22 22 21 21 21 20 19 18 18 17 16 15 15 14 13 13 12 11 11 11 10 11 11 11 11 11 12 12 12 12 12 12
28 29 28 28 28 27 26 26 25 24 23 24 27 27 27 27 27 28 29 28 27 26 25 24 24 23 23 23 23 23 23 23 22 22 22 21 20 19 19 18 17 16 16 15 14 14 13 13 12 12 12 12 12 12 12 12 13 13 14 14 14 14 14
28 29 29 28 28 27 26 26 25 24 23 23 26 27 27 27 27 28 29 29 28 27 26 25 24 24 24 23 23 24 24 24 24 23 23 22 21 20 19 18 17 16 16 15 15 14 14 14 13 13 13 13 13 13 13 13 13 14 15 16 16 16 16
28 30 30 30 29 27 26 26 25 24 23 23 24 26 27 27 27 27 28 29 28 27 26 25 24 24 24 24 24 24 24 25 25 25 24 23 22 21 20 19 18 17 17 16 16 15 14 14 14 14 14 14 14 14 14 14 14 14 15 16 17 18 18
27 29 29 30 29 27 26 26 25 24 23 23 24 26 27 27 26 26 27 28 28 27 27 26 25 25 25 25 25 24 25 26 26 26 25 24 23 22 21 20 19 18 18 17 17 16 15 15 15 15 15 15 15 15 16 15 15 15 16 16 17 18 19
27 29 28 28 28 27 26 26 26 25 24 24 24 25 26 27 26 26 26 27 28 28 27 26 25 25 26 26 26 25 25 26 27 26 25 25 25 23 22 21 20 19 19 18 18 17 17 17 17 17 17 17 17 17 16 16 16 17 17 18 18 19 20
26 28 27 26 27 28 27 26 26 25 25 25 25 25 25 26 26 25 25 26 26 27 27 27 26 26 26 26 26 26 26 27 27 26 26 26 26 25 24 23 22 21 20 20 19 19 18 18 18 18 18 18 18 18 17 17 17 18 18 19 19 20 20
23 25 25 24 25 27 27 27 26 25 25 26 25 25 25 26 26 26 25 25 26 27 27 27 27 27 26 27 27 27 27 27 27 27 27 26 26 26 25 24 23 22 21 21 20 20 20 19 20 20 20 20 19 19 19 19 19 20 20 21 21 21 21
20 23 24 25 25 26 27 27 27 26 26 25 25 26 26 27 27 27 27 27 26 27 27 28 28 28 27 27 28 28 28 28 27 27 28 27 27 26 25 24 23 23 22 22 21 21 20 20 20 21 21 21 20 20 20 20 21 22 22 22 23 23 23
19 21 22 23 24 26 27 27 26 26 26 27 27 27 28 28 28 28 28 28 27 27 28 28 28 28 28 28 28 29 29 28 28 28 29 28 27 27 25 25 24 23 23 22 22 21 21 21 21 22 22 22 21 21 22 22 22 23 24 24 24 24 23
21 23 24 25 26 27 27 27 27 27 27 28 29 29 30 29 29 29 29 28 28 28 28 29 29 29 29 29 29 29 29 29 29 29 29 29 28 27 26 25 24 24 23 22 22 22 21 21 22 22 22 22 22 22 23 24 24 25 25 26 26 25 24
23 24 26 27 28 29 30 29 29 28 28 29 30 31 32 31 29 29 29 29 29 28 29 29 29 29 30 29 29 30 30 30 30 30 30 29 28 27 26 26 25 24 24 23 22 21 21 21 21 21 22 22 23 24 24 25 25 25 26 26 26 25 24
26 25 26 28 29 29 30 30 29 28 28 28 29 31 32 32 31 30 30 30 29 29 30 30 30 30 30 30 31 31 31 31 31 31 30 30 29 28 27 26 26 25 24 23 22 21 21 21 22 22 23 23 24 25 25 25 25 24 25 26 26 25 25
31 29 29 29 30 31 31 31 30 29 28 28 29 31 32 33 32 31 31 30 30 30 30 31 31 31 31 31 32 32 32 32 32 32 31 30 29 28 28 27 26 25 24 23 22 21 21 22 23 24 24 24 25 25 25 25 24 24 25 26 26 26 26
33 33 32 31 32 33 33 34 33 31 31 30 30 30 32 33 33 33 32 32 31 31 31 32 32 32 32 32 33 33 34 34 33 33 32 31 30 29 28 27 26 25 23 22 22 22 22 23 23 23 24 24 25 25 25 25 25 25 25 25 26 27 25
32 33 33 33 34 34 34 35 35 33 32 32 32 31 32 33 34 34 33 33 33 32 32 33 33 33 33 33 34 35 35 35 35 34 33 32 31 29 28 27 26 25 23 23 22 22 23 23 23 23 23 24 24 24 25 26 26 26 25 25 26 26 24
31 34 35 34 35 36 36 36 36 34 33 33 33 33 33 33 34 35 34 34 34 34 34 34 35 35 35 35 35 36 36 36 35 35 34 32 31 30 29 27 26 25 24 24 23 23 23 23 22 22 23 23 24 24 25 25 25 25 25 25 25 24 23
29 32 34 35 35 36 38 39 39 38 37 36 35 35 35 35 36 36 36 36 36 36 36 36 37 38 38 37 37 37 36 36 36 35 34 33 32 30 29 27 26 25 25 25 24 23 23 23 22 22 23 24 25 24 24 24 24 24 24 24 23 23 23
26 27 29 32 35 36 37 38 38 39 40 40 39 38 38 38 38 39 39 38 38 39 39 39 39 40 40 39 38 37 37 36 36 35 34 33 31 30 29 27 27 26 26 25 24 23 22 22 22 22 23 24 24 23 23 24 24 24 24 23 23 23 22
25 25 26 27 31 34 37 38 37 38 40 40 39 39 39 39 40 41 41 41 41 42 42 42 42 41 41 40 39 38 37 36 36 35 34 33 32 30 29 28 27 27 26 24 23 22 22 22 22 22 23 23 22 22 22 21 21 21 22 22 22 22 21
24 25 25 24 25 27 33 38 40 40 40 41 41 41 41 42 42 43 43 44 45 45 45 44 43 42 41 41 40 39 37 36 35 34 34 33 31 30 29 28 27 26 25 24 23 22 22 22 22 22 22 21 21 21 20 19 19 19 20 20 21 21 21
24 25 25 25 24 23 26 32 37 38 37 38 39 40 41 42 44 45 45 45 46 46 45 43 42 41 40 40 40 39 37 36 35 34 34 33 31 30 29 28 26 25 24 24 23 22 22 22 22 21 20 20 20 19 18 18 18 18 19 20 20 21 21
25 25 25 25 25 24 23 26 30 33 34 34 35 36 37 38 41 44 47 48 47 46 44 43 42 41 40 40 40 39 38 36 35 35 34 32 31 29 27 26 25 24 24 23 22 21 21 21 20 20 20 19 19 18 18 18 18 18 19 20 20 21 21
26 26 26 26 26 25 25 25 27 29 32 33 34 36 37 37 38 40 44 46 45 43 41 41 41 40 39 39 39 39 39 37 36 36 34 32 30 28 26 25 24 24 23 23 21 20 20 19 19 19 19 18 18 18 18 18 19 19 19 19 19 20 20
27 26 26 27 27 27 27 27 27 29 31 32 33 34 36 38 38 39 41 42 43 42 40 38 38 37 36 36 36 37 37 37 36 34 32 29 27 25 24 24 23 23 22 21 20 20 20 20 19 19 19 18 18 19 19 19 19 19 19 18 18 18 19
27 28 27 27 28 29 29 29 30 31 32 33 33 34 35 35 35 37 39 40 41 43 43 40 38 37 35 34 33 33 33 34 33 30 27 24 23 23 23 23 22 22 21 20 20 20 20 20 19 19 19 19 19 19 19 19 19 19 18 18 19 19 19
27 28 28 28 28 29 30 31 32 32 32 33 33 34 35 35 35 35 35 35 36 39 42 42 40 37 34 32 31 30 29 29 28 26 23 21 21 21 21 22 22 21 20 21 22 22 20 19 19 19 19 19 19 19 18 18 19 19 19 19 19 19 19
26 27 27 28 28 29 30 31 32 32 32 32 33 33 33 34 35 36 35 34 33 34 37 39 38 35 31 29 27 27 27 26 25 23 21 20 20 20 20 21 21 21 21 22 22 20 19 19 19 20 20 20 20 19 18 18 19 19 19 19 19 19 20
25 26 27 27 27 28 28 29 31 32 32 32 33 33 33 33 34 35 35 33 32 32 33 33 32 31 29 27 25 25 26 25 23 21 20 20 20 19 19 19 19 20 20 20 19 18 18 19 20 20 20 21 21 21 20 19 19 19 19 19 19 20 20
22 23 25 26 26 26 27 28 29 30 31 31 31 32 32 31 32 32 31 30 28 28 28 28 27 27 27 27 25 24 24 23 21 20 20 20 20 19 19 19 18 17 17 17 18 18 18 18 19 19 20 21 22 21 20 19 19 19 19 19 19 19 20
20 21 22 23 23 24 24 25 26 28 28 27 27 28 27 26 26 26 25 23 23 24 25 26 25 24 24 24 23 22 21 21 21 20 20 20 20 20 20 19 18 16 15 16 17 17 18 18 19 19 19 20 20 20 19 18 18 19 19 19 19 19 19
Wind_Direction
220 219 219 220 220 221 222 222 223 222 221 221 219 218 218 218 219 220 221 220 219 220 221 222 222 221 221 221 223 224 225 225 225 227 228 229 231 228 226 229 229 226 223 220 221 223 226 227 227 238 258 272 277 284 302 314 315 318 324 324 318 316 319
221 220 220 221 222 222 223 223 224 224 224 223 221 219 218 218 218 219 219 218 218 219 220 221 222 222 222 221 222 223 224 224 226 227 227 228 229 226 225 227 226 222 221 221 222 223 225 226 230 241 253 261 274 287 303 316 318 318 323 325 321 319 320
220 220 222 224 223 223 223 223 224 224 224 223 220 219 217 218 218 218 218 217 217 218 219 220 221 223 223 222 222 222 223 225 225 226 226 226 227 226 224 224 223 221 221 222 222 221 224 232 237 245 253 261 275 289 300 313 318 318 320 319 317 317 316
219 220 223 225 224 224 222 221 224 225 225 222 218 217 216 217 219 219 218 218 217 217 217 219 221 222 223 222 221 222 222 224 225 225 225 225 226 224 221 220 220 222 223 223 224 225 230 237 240 243 252 263 274 285 294 303 312 317 319 318 313 310 310
219 220 223 224 222 221 220 221 224 226 225 221 218 218 218 219 220 219 219 218 218 218 217 219 221 222 222 221 221 221 222 223 224 224 224 224 224 222 219 218 220 223 225 225 226 230 234 239 242 243 250 260 269 277 285 295 305 312 317 319 315 310 307
221 220 221 220 219 219 220 222 224 225 223 220 218 219 220 221 221 220 218 218 218 219 218 219 220 221 221 221 220 220 221 221 222 222 223 222 221 220 219 220 222 225 226 225 228 232 236 240 243 246 251 258 265 271 278 287 297 304 309 313 315 313 310
222 222 221 220 220 221 222 223 225 225 224 220 218 220 221 222 222 220 218 218 218 218 218 218 219 220 221 220 219 219 219 220 220 221 221 220 219 219 220 222 224 226 226 226 230 234 237 241 245 250 255 261 266 270 275 282 289 295 299 303 307 309 311
223 224 224 223 224 224 222 223 225 226 224 221 220 221 221 221 222 220 218 217 217 218 218 218 219 220 220 220 219 219 218 218 219 219 220 219 218 219 221 223 225 226 227 228 231 235 239 244 248 254 259 263 268 272 278 283 287 290 292 294 297 300 304
225 225 225 225 225 223 222 222 224 225 223 222 221 221 221 220 221 220 218 217 217 218 219 219 219 219 220 220 219 218 217 217 218 218 218 218 218 219 220 223 225 226 227 230 233 237 242 246 251 255 259 264 269 274 280 286 289 290 290 291 292 294 296
228 225 225 225 224 223 222 221 222 224 225 224 222 220 218 218 219 220 219 218 218 218 218 220 220 219 219 219 219 218 217 217 216 217 217 217 217 218 220 222 224 225 227 231 234 238 243 247 251 255 259 263 268 274 279 284 288 289 290 291 290 291 292
226 225 225 225 223 222 220 219 220 223 225 225 223 219 217 217 219 220 221 220 219 219 218 220 220 219 218 219 219 218 217 217 216 217 217 217 217 219 220 222 223 225 227 230 234 238 242 246 251 255 259 264 268 273 278 282 286 288 290 292 291 290 290
223 222 223 222 222 221 219 219 221 223 225 225 223 220 218 218 219 220 221 221 220 220 218 219 220 219 219 219 219 219 218 217 217 218 218 217 217 219 220 222 223 225 228 231 234 239 243 248 253 257 261 265 269 273 277 281 283 286 289 292 293 292 290
221 219 220 220 220 219 218 219 221 222 223 224 222 219 217 217 217 219 219 220 221 220 218 219 220 220 220 219 219 220 219 217 218 219 218 217 218 219 221 223 224 227 230 234 237 242 246 250 255 260 263 267 271 273 276 280 283 285 288 290 292 292 291
220 217 218 219 219 219 219 219 219 219 221 222 221 218 216 216 217 218 219 220 221 220 219 219 220 220 220 219 219 220 219 218 219 219 219 218 219 221 223 224 227 230 233 237 241 245 249 252 256 261 264 268 271 274 276 279 281 284 286 288 290 291 291
217 215 217 219 218 217 217 216 217 218 219 221 221 220 218 218 218 219 219 221 221 221 220 219 219 220 220 219 219 220 219 219 219 219 219 219 220 221 223 226 229 232 236 239 244 248 252 255 258 261 265 268 270 273 276 278 280 282 284 286 288 289 291
215 215 217 219 219 216 215 216 218 220 221 222 223 222 220 220 220 220 221 221 222 223 222 220 220 220 220 219 219 219 219 219 219 219 218 218 219 221 224 227 230 234 237 241 245 249 253 256 259 262 265 268 270 272 275 279 280 280 281 284 286 287 288
214 214 217 218 217 216 216 219 221 222 223 225 226 225 224 223 223 223 223 222 223 224 224 222 220 220 220 220 219 219 219 219 219 219 219 219 219 222 225 229 232 235 239 242 246 249 253 256 260 263 266 268 270 272 275 279 280 279 280 282 283 284 285
220 217 217 217 216 216 219 221 223 225 227 229 230 229 227 226 225 225 224 224 224 225 224 223 221 220 220 220 219 218 219 220 219 219 220 220 220 222 226 229 233 236 240 243 247 250 253 256 260 263 266 268 269 271 275 278 278 279 280 281 282 282 283
227 226 223 221 220 221 223 225 226 229 231 233 232 231 229 227 226 226 226 225 225 225 224 223 222 220 220 220 219 218 219 220 220 221 221 221 222 224 227 230 233 237 240 244 248 251 253 257 260 263 265 267 270 272 275 277 278 279 281 282 284 284 284
230 228 227 225 225 225 226 227 229 230 232 234 233 231 229 227 226 227 226 226 225 225 224 223 222 222 221 220 219 219 219 220 221 222 222 223 223 226 229 232 234 238 242 245 248 251 254 258 261 262 264 268 272 275 277 278 279 280 282 284 286 287 286
232 229 228 228 230 229 228 228 229 232 236 236 233 230 228 227 227 227 227 226 226 225 225 223 222 222 222 221 220 219 220 220 221 222 222 223 224 227 229 232 235 239 243 246 249 252 255 260 262 262 264 269 274 277 279 278 277 279 282 284 286 289 288
236 234 231 231 232 232 232 232 232 235 238 235 231 229 228 228 228 228 228 227 227 227 226 225 224 223 223 223 221 220 220 220 221 221 222 223 224 227 230 233 236 240 243 246 250 253 257 261 264 264 267 272 276 278 279 279 277 279 282 284 286 288 288
237 235 235 235 235 234 235 235 235 237 236 233 230 230 230 230 230 230 229 229 229 229 228 227 226 225 224 224 223 221 220 220 220 220 221 222 224 227 230 234 237 240 244 246 250 254 257 260 264 266 269 273 277 278 279 282 281 280 281 285 285 285 284
240 238 237 238 239 237 236 236 236 236 234 231 231 231 231 232 231 231 230 231 231 231 230 229 228 227 226 226 224 222 221 220 220 220 221 222 225 227 230 234 237 241 244 247 250 254 257 260 263 267 271 274 277 278 281 284 284 281 282 284 283 281 280
247 243 240 240 241 239 237 237 237 235 233 232 233 233 234 234 233 232 232 232 233 233 232 231 230 228 227 227 225 223 221 220 220 220 221 222 224 227 230 234 238 242 245 248 251 254 256 259 262 267 272 276 278 280 283 285 285 283 283 284 280 279 280
247 246 245 244 242 239 237 237 237 236 235 235 236 236 236 235 234 234 234 234 234 234 234 233 232 230 229 228 226 224 222 220 220 220 221 222 224 227 231 234 238 242 245 248 250 252 255 258 261 267 274 278 280 282 285 287 286 285 283 281 279 278 279
246 247 248 249 246 241 237 235 235 235 234 235 236 236 236 235 235 236 236 236 236 236 235 235 235 233 231 229 226 224 222 221 220 219 221 223 225 228 231 235 239 242 244 246 248 249 252 256 261 269 277 280 281 283 285 286 286 284 281 279 278 277 277
247 248 249 252 253 247 240 236 235 235 236 237 237 237 237 237 237 237 237 238 238 238 237 237 236 234 232 229 226 224 221 220 219 220 221 223 225 228 232 236 239 241 242 244 245 247 251 256 264 273 279 281 282 283 283 285 285 283 279 278 278 276 277
250 251 251 252 254 252 245 240 238 238 241 243 242 241 240 238 238 238 238 239 240 239 238 238 236 234 232 228 225 222 220 219 218 219 221 222 224 227 231 235 237 238 239 242 243 247 253 260 266 273 278 280 282 281 282 285 286 284 280 279 278 276 277
251 254 254 252 252 249 245 241 240 240 243 246 245 243 243 243 243 242 240 239 240 240 239 238 235 232 230 227 224 221 218 217 217 217 219 220 222 226 230 231 233 235 237 240 243 248 255 261 266 272 277 279 279 279 281 285 287 285 283 281 279 277 278
252 253 253 253 251 248 244 242 242 242 244 247 247 245 244 246 248 249 247 242 239 239 238 236 233 230 227 225 223 219 216 216 216 216 216 218 220 223 226 227 230 233 236 240 244 248 254 260 266 272 276 275 276 278 282 285 286 286 285 283 280 279 279
252 252 253 252 251 249 247 244 244 243 244 247 249 249 248 248 249 252 252 247 239 235 234 231 229 228 227 224 221 219 216 214 214 213 214 216 218 220 222 225 228 232 237 241 245 248 255 262 267 271 273 273 275 278 281 283 285 285 284 283 281 281 280
253 253 254 253 252 251 250 249 248 246 245 246 249 251 251 250 250 251 251 248 240 233 229 226 225 226 227 226 223 221 218 216 214 213 213 214 216 218 221 225 230 234 237 242 247 252 260 265 267 269 272 273 275 278 279 281 282 282 282 282 281 280 280
256 256 256 256 255 255 254 253 252 250 248 248 250 252 252 251 250 249 250 250 244 234 226 222 220 222 226 227 223 220 217 215 213 212 212 213 215 219 224 229 233 236 241 248 254 258 262 265 266 268 271 272 274 276 277 279 279 279 280 281 280 279 278
258 258 259 259 259 259 257 256 255 253 251 249 249 251 251 250 249 249 249 251 247 234 223 218 216 216 217 218 214 209 207 206 206 209 211 214 218 224 230 235 238 241 247 256 260 260 260 264 267 270 271 272 273 274 275 276 277 277 279 280 278 277 278
261 260 260 260 260 260 259 258 257 256 253 251 251 251 250 250 249 248 249 250 245 232 221 216 212 208 204 203 199 196 197 200 206 212 216 218 222 227 233 239 244 247 251 257 260 261 264 268 271 272 272 271 273 274 274 274 275 275 276 277 277 277 278
265 263 263 261 260 259 258 258 259 258 255 251 250 249 248 248 246 244 244 244 235 221 210 204 198 192 191 192 194 196 199 205 213 220 222 224 228 232 237 242 247 252 256 258 259 263 268 272 274 276 275 272 271 273 273 272 272 272 274 276 277 278 279
269 267 265 263 262 262 260 258 258 258 255 251 247 246 246 244 238 232 228 221 208 195 188 184 183 184 187 191 196 201 206 212 219 223 226 229 233 235 238 242 247 253 258 260 261 265 269 273 278 280 278 273 270 270 270 269 268 269 273 276 277 278 279